Weather History for Omaha, NE

Change the Weather History Date:

Friday, May 31, 2013

  Actual Average Record
Temperature  
Mean Temperature 69 °F 67 °F  
Max Temperature 80 °F 79 °F 102 °F (1934)
Min Temperature 57 °F 56 °F 42 °F (1889)
Degree Days  
Heating Degree Days 0 2  
Month to date heating degree days 177 147  
Since 1 July heating degree days 6134 6150  
Cooling Degree Days 4 4  
Month to date cooling degree days 89 66  
Year to date cooling degree days 96 82  
Growing Degree Days 18 (Base 50)    
Moisture  
Dew Point 50 °F    
Average Humidity 58    
Maximum Humidity 86    
Minimum Humidity 30    
Precipitation  
Precipitation 0.00 in 0.17 in 2.24 in (1877)
Month to date precipitation 5.74 4.76  
Year to date precipitation 14.34 11.28  
Snow  
Snow 0.00 in 0.00 in - ()
Month to date snowfall 3.1 0.0  
Since 1 July snowfall 35.7 26.4  
Snow Depth 0.00 in    
Sea Level Pressure  
Sea Level Pressure 29.64 in    
Wind  
Wind Speed 11 mph (SSW)    
Max Wind Speed 24 mph    
Max Gust Speed 33 mph    
Visibility 10 miles    
Events      
T = Trace of Precipitation, MM = Missing Value Source: NWS Daily Summary

Daily Weather History Graph

Daily Weather History Graph

Search for Another Location

Airport:

Trip Planner

Search our weather history database for the weather conditions in past years. The results will help you decide how hot, cold, wet, or windy it might be!

Date:

Astronomy

May. 31, 2013 Rise Set
Actual Time 5:53 AM CDT 8:49 PM CDT
Civil Twilight 5:20 AM CDT 9:23 PM CDT
Nautical Twilight 4:38 AM CDT 10:05 PM CDT
Astronomical Twilight 3:49 AM CDT 10:53 PM CDT
Moon 1:22 AM CDT (5/31) 1:12 PM CDT (5/31)
Length of Visible Light 16h 02m
Length of Day
14h 56m
Waning Gibbous, 51% of the Moon is Illuminated
May 31
Waning Gibbous
May 31
Last Quarter
Jun 8
New
Jun 16
First Quarter
Jun 23
Full

Hourly Weather History & Observations

Time (CDT) Temp. Dew Point Humidity Pressure Visibility Wind Dir Wind Speed Gust Speed Precip Events Conditions
12:52 AM 62.1 °F 55.0 °F 78% 29.64 in 10.0 mi South 8.1 mph - N/A   Scattered Clouds
1:52 AM 61.0 °F 54.0 °F 78% 29.65 in 10.0 mi SSE 9.2 mph - N/A   Scattered Clouds
2:52 AM 60.1 °F 53.1 °F 78% 29.63 in 10.0 mi SE 6.9 mph - N/A   Partly Cloudy
3:52 AM 59.0 °F 53.1 °F 81% 29.63 in 10.0 mi SSE 9.2 mph - N/A   Clear
4:52 AM 57.9 °F 53.1 °F 84% 29.61 in 10.0 mi SE 9.2 mph - N/A   Clear
5:52 AM 59.0 °F 53.1 °F 81% 29.62 in 10.0 mi South 8.1 mph - N/A   Partly Cloudy
6:52 AM 59.0 °F 54.0 °F 83% 29.62 in 10.0 mi SE 4.6 mph - N/A   Partly Cloudy
7:52 AM 64.0 °F 54.0 °F 70% 29.63 in 10.0 mi SE 8.1 mph - N/A   Partly Cloudy
8:52 AM 66.9 °F 50.0 °F 54% 29.66 in 10.0 mi SW 8.1 mph - N/A   Scattered Clouds
9:52 AM 70.0 °F 48.9 °F 47% 29.66 in 10.0 mi WSW 10.4 mph - N/A   Partly Cloudy
10:52 AM 72.0 °F 48.9 °F 44% 29.67 in 10.0 mi SW 10.4 mph - N/A   Scattered Clouds
11:52 AM 73.0 °F 51.1 °F 46% 29.67 in 10.0 mi WSW 10.4 mph 20.7 mph N/A   Scattered Clouds
12:52 PM 75.9 °F 51.1 °F 42% 29.65 in 10.0 mi SSW 12.7 mph 19.6 mph N/A   Scattered Clouds
1:52 PM 77.0 °F 52.0 °F 42% 29.65 in 10.0 mi SSW 16.1 mph 25.3 mph N/A   Scattered Clouds
2:52 PM 77.0 °F 50.0 °F 39% 29.63 in 10.0 mi South 18.4 mph 26.5 mph N/A   Scattered Clouds
3:52 PM 79.0 °F 51.1 °F 38% 29.62 in 10.0 mi SSW 18.4 mph 26.5 mph N/A   Scattered Clouds
4:52 PM 79.0 °F 52.0 °F 39% 29.62 in 10.0 mi SSW 16.1 mph 27.6 mph N/A   Mostly Cloudy
5:52 PM 80.1 °F 48.0 °F 32% 29.60 in 10.0 mi SSW 19.6 mph 24.2 mph N/A   Mostly Cloudy
6:52 PM 78.1 °F 45.0 °F 31% 29.59 in 10.0 mi SW 15.0 mph - N/A   Scattered Clouds
7:52 PM 77.0 °F 45.0 °F 32% 29.60 in 10.0 mi SW 11.5 mph - N/A   Scattered Clouds
8:52 PM 73.0 °F 46.0 °F 38% 29.62 in 10.0 mi West 8.1 mph - N/A   Scattered Clouds
9:52 PM 71.1 °F 46.0 °F 41% 29.65 in 10.0 mi WNW 6.9 mph 17.3 mph N/A   Partly Cloudy
10:52 PM 68.0 °F 45.0 °F 43% 29.68 in 10.0 mi WSW 8.1 mph - N/A   Clear
11:52 PM 66.0 °F 44.1 °F 45% 29.69 in 10.0 mi West 17.3 mph 24.2 mph N/A   Partly Cloudy